Location: ??????
(36.0418°N, 43.6351°E)
Time: 20:48:52
(UTC+00:00)

Meteor 1-31 Rocket - Pass Details

Date: 07 March 2021
Orbit: 519 x 547 km, 97.7° (Epoch: 19 April)

Event Time Altitude Azimuth Distance (km) Brightness Sun altitude
Rises 02:50:59 0° 354° (N) 2,691 6.3 -8.2°
Reaches altitude 10° 02:53:34 10° 336° (NNW) 1,789 5.2 -7.7°
Maximum altitude 02:56:19 19° 291° (WNW) 1,304 4.2 -7.2°
Drops below altitude 10° 02:59:03 10° 245° (WSW) 1,769 4.9 -6.6°
Sets 03:01:35 0° 227° (SW) 2,647 5.9 -6.1°
